Regional Weather Roundup
Issued by NWS

Home | Current Version | Previous Version | Graphics & Text | Print | Product List | Glossary On
Versions: 1 2 3 4 5 6 7 8 9 10 11 12 13 14 15 16 17 18 19 20 21 22 23 24 25 26 27 28 29 30 31 32 33 34 35 36 37 38 39 40 41 42 43 44 45 46 47 48 49 50
000
ASUS43 KDTX 261201
RWRMI
MICHIGAN HOURLY REGIONAL WEATHER ROUNDUP
NATIONAL WEATHER SERVICE DETROIT/PONTIAC MI
800 AM EDT SUN APR 26 2015

NOTE: "FAIR" INDICATES FEW OR NO CLOUDS BELOW 12,000 FEET WITH NO
SIGNIFICANT WEATHER AND/OR OBSTRUCTION TO VISIBILITY.

MIZ047>049-052>055-059>063-066>070-074>076-081>083-261300-
SOUTHEAST LOWER MICHIGAN

CITY           SKY/WX    TMP DP  RH WIND       PRES   REMARKS
ADRIAN         SUNNY     38  27  64 NE12      29.90R WCI  30
6HR MIN TEMP:  35; 6HR MAX TEMP:  39;

ALMA           SUNNY     37  27  67 N6        29.95R WCI  33
ANN ARBOR      SUNNY     39  26  59 N8        29.90R WCI  33
BAD AXE        SUNNY     32  30  90 CALM      29.93R
6HR MIN TEMP:  28; 6HR MAX TEMP:  35;

CARO           SUNNY     36  32  84 CALM      29.93R
DETROIT CITY   SUNNY     39  27  62 N10       29.90R WCI  32
6HR MIN TEMP:  34; 6HR MAX TEMP:  39;

DETROIT        SUNNY     41  27  57 N6        29.91R
6HR MIN TEMP:  36; 6HR MAX TEMP:  41;

FLINT          MOSUNNY   37  29  72 N3        29.94R
6HR MIN TEMP:  30; 6HR MAX TEMP:  37;

GROSSE ILE     SUNNY     39  28  65 N9        29.88R WCI  33
HILLSDALE      SUNNY     37  26  65 N5        29.90R WCI  33
6HR MIN TEMP:  34; 6HR MAX TEMP:  40;

HOWELL         SUNNY     35  28  76 N6        29.92R WCI  30
6HR MIN TEMP:  31; 6HR MAX TEMP:  37;


CITY           SKY/WX    TMP DP  RH WIND       PRES   REMARKS
JACKSON        SUNNY     35  27  72 N3        29.92R
6HR MIN TEMP:  31; 6HR MAX TEMP:  39;

LAMBERTVILLE   SUNNY     41  28  60 N6        29.89S
LANSING        SUNNY     35  26  69 N5        29.95R WCI  31
6HR MIN TEMP:  28; 6HR MAX TEMP:  35;

LAPEER         FAIR      36  29  78 N3        29.91S
MASON          SUNNY     33  27  79 N3        29.93R
MONROE         SUNNY     37  28  70 CALM      29.88R
MT. CLEMENS    SUNNY     37  29  71 N13       29.87R WCI  29
6HR MIN TEMP:  32; 6HR MAX TEMP:  37;

PONTIAC        SUNNY     37  26  64 N9        29.89R WCI  30
6HR MIN TEMP:  33; 6HR MAX TEMP:  37;

PORT HOPE        N/A     41  32  70 NE3       29.91R
6HR MIN TEMP:  38; 6HR MAX TEMP:  41;

PORT HURON     SUNNY     36  30  80 N7        29.91R WCI  30
TRI CITIES     SUNNY     37  26  64 N7        29.95R WCI  32
6HR MIN TEMP:  33; 6HR MAX TEMP:  37;

MIDLAND        FAIR      36  26  69 CALM      29.95R
TROY           SUNNY     40  26  57 N7        29.91R
SAGINAW HB     SUNNY     36  32  87 NW5       29.94R WCI  32
$$
MIZ043>046-050>051-056>058-064>065-071>073-077>080-261300-
SOUTHWEST LOWER MICHIGAN

CITY           SKY/WX    TMP DP  RH WIND       PRES   REMARKS
BATTLE CREEK   SUNNY     35  27  72 N3        29.93R
6HR MIN TEMP:  32; 6HR MAX TEMP:  39;

BENTON HARBOR  SUNNY     36  27  69 VRB3      29.95R
6HR MIN TEMP:  32; 6HR MAX TEMP:  41;

BIG RAPIDS     SUNNY     36  26  68 N5        29.96R WCI  32
6HR MIN TEMP:  30; 6HR MAX TEMP:  36;

COLDWATER      SUNNY     36  27  69 N6        29.91S WCI  31
6HR MIN TEMP:  33; 6HR MAX TEMP:  37;

FREMONT        FAIR      35  26  69 N5        29.96S WCI  31
HOLLAND        SUNNY     40  26  57 N3        29.96R
6HR MIN TEMP:  34; 6HR MAX TEMP:  42;

GRAND RAPIDS   SUNNY     37  27  67 NE3       29.95R
6HR MIN TEMP:  34; 6HR MAX TEMP:  37;

IONIA          FAIR      37  26  65 N6        29.94R WCI  33
KALAMAZOO      SUNNY     36  27  69 N7        29.94R WCI  30
6HR MIN TEMP:  31; 6HR MAX TEMP:  40;

LUDINGTON      SUNNY     36  31  82 N5        29.99S WCI  32
6HR MIN TEMP:  31; 6HR MAX TEMP:  38;

MARSHALL       SUNNY     35  27  73 N5        29.92R WCI  30
MOUNT PLEASANT SUNNY     37  26  66 N3        29.95R
6HR MIN TEMP:  31; 6HR MAX TEMP:  37;

MUSKEGON       SUNNY     39  25  57 N8        29.98R WCI  33
6HR MIN TEMP:  34; 6HR MAX TEMP:  40;

SOUTH HAVEN    SUNNY     37  28  69 CALM      29.95R
$$
MIZ016>042-261300-
NORTHERN LOWER MICHIGAN

CITY           SKY/WX    TMP DP  RH WIND       PRES   REMARKS
BEAVER ISLAND  SUNNY     35  30  80 CALM      30.01R
6HR MIN TEMP:  25; 6HR MAX TEMP:  35;

BELLAIRE       SUNNY     31  26  83 CALM      30.00R
6HR MIN TEMP:  27; 6HR MAX TEMP:  34;

CADILLAC       SUNNY     34  26  71 CALM      29.96R
CHARLEVOIX     SUNNY     35  32  89 NW3       30.02R
6HR MIN TEMP:  31; 6HR MAX TEMP:  35;

FRANKFORT      SUNNY     36  26  69 CALM      30.00R
GAYLORD        SUNNY     33  27  78 CALM      29.95S
6HR MIN TEMP:  27; 6HR MAX TEMP:  36;

GRAYLING       SUNNY     31  26  84 CALM      29.97R
6HR MIN TEMP:  21; 6HR MAX TEMP:  31;

HARBOR SPRINGS SUNNY     33  26  72 CALM      29.99R
HOUGHTON LAKE  SUNNY     36  24  62 NE6       29.96R WCI  31
6HR MIN TEMP:  30; 6HR MAX TEMP:  36;

MANISTEE       SUNNY     30  25  80 CALM      30.01R
OSCODA         SUNNY     36  29  74 N5        29.95R WCI  32
PELLSTON       SUNNY     32  27  81 CALM      30.00R
6HR MIN TEMP:  24; 6HR MAX TEMP:  32;

ROGERS CITY    SUNNY     36  32  83 W3        29.99R
TRAVERSE CITY  SUNNY     33  28  81 CALM      29.99R
6HR MIN TEMP:  28; 6HR MAX TEMP:  37;

$$
MIZ007>008-015-261300-
EASTERN UPPER MICHIGAN

CITY           SKY/WX    TMP DP  RH WIND       PRES   REMARKS
KINROSS        SUNNY     34  28  80 N7        30.00R WCI  28
6HR MIN TEMP:  28; 6HR MAX TEMP:  34;

MACKINAC ISLAN SUNNY     35  28  74 N7        29.99R WCI  29
6HR MIN TEMP:  31; 6HR MAX TEMP:  35;

NEWBERRY       SUNNY     32  27  82 N6        30.01R WCI  26
S. S. MARIE    CLOUDY    33  27  78 W3        29.99R
6HR MIN TEMP:  29; 6HR MAX TEMP:  33;

$$
MIZ004>006-011>014-085-261300-
CENTRAL UPPER MICHIGAN

CITY           SKY/WX    TMP DP  RH WIND       PRES   REMARKS
MANISTIQUE     SUNNY     33  29  82 N5        30.02R WCI  29
ESCANABA       SUNNY     34  21  60 N7        30.04R WCI  28
6HR MIN TEMP:  32; 6HR MAX TEMP:  34;

MENOMINEE      SUNNY     32  19  59 N5        30.04R WCI  27
6HR MIN TEMP:  28; 6HR MAX TEMP:  34;

SAWYER-GWINN   SUNNY     34  23  64 N5        30.04R WCI  30
$$
MIZ001>003-009>011-084-261300-
WESTERN UPPER MICHIGAN

CITY           SKY/WX    TMP DP  RH WIND       PRES   REMARKS
IRON MOUNTAIN  SUNNY     30  22  72 CALM      30.04R
6HR MIN TEMP:  25; 6HR MAX TEMP:  31;

HOUGHTON       SUNNY     37  25  61 CALM      30.08R
6HR MIN TEMP:  28; 6HR MAX TEMP:  37;

COPPER HARBOR    N/A     36  29  75 CALM      30.11R
6HR MIN TEMP:  31; 6HR MAX TEMP:  37;

IRONWOOD       SUNNY     25  25 100 CALM      30.08R
6HR MIN TEMP:  23; 6HR MAX TEMP:  28;

$$

ABBREVIATIONS USED IN REMARKS
   TC - TEMPERATURE IN CELSIUS
  WCI - WIND CHILL INDEX
   HX - HEAT INDEX
  VSB - VISIBILITY



USA.gov is the U.S. government's official web portal to all federal, state and local government web resources and services.